GBNUT EBAW-EBAW

Flight info

Callsign GBNUT
Flight time 0h 9m
Altitude 1200
Route CIRCUITS
Aircraft AP32/L-V/N

Departure

Time 2026-04-26 19:42
Airport Antwerp International Airport (Deurne) (EBAW)

Arrival

Time 2026-04-26 19:51
Airport Antwerp International Airport (Deurne) (EBAW)
Time Latitude Longitude Altitude Speed Heading
2026-04-26 19:31 51.19049 4.45345 33 ft 0 kts 110°
2026-04-26 19:35 51.19049 4.45344 33 ft 0 kts 110°
2026-04-26 19:35 51.19048 4.45346 33 ft 2 kts 110°
2026-04-26 19:35 51.19047 4.45350 33 ft 0 kts 110°
2026-04-26 19:38 51.19047 4.45354 33 ft 2 kts 101°
2026-04-26 19:39 51.19053 4.45357 33 ft 2 kts 304°
2026-04-26 19:39 51.19081 4.45335 33 ft 9 kts 18°
2026-04-26 19:39 51.19100 4.45348 33 ft 0 kts 17°
2026-04-26 19:40 51.19114 4.45355 33 ft 6 kts 16°
2026-04-26 19:40 51.19175 4.45338 34 ft 12 kts 315°
2026-04-26 19:40 51.19209 4.45378 36 ft 11 kts 107°
2026-04-26 19:41 51.19190 4.45472 35 ft 0 kts 112°
2026-04-26 19:41 51.19183 4.45504 35 ft 22 kts 107°
2026-04-26 19:41 51.19115 4.45786 85 ft 49 kts 105°
2026-04-26 19:42 51.18982 4.46406 364 ft 45 kts 95°
2026-04-26 19:42 51.18975 4.46967 501 ft 57 kts 89°
2026-04-26 19:42 51.19123 4.47489 705 ft 53 kts 28°
2026-04-26 19:42 51.19511 4.47395 792 ft 67 kts 327°
2026-04-26 19:43 51.19830 4.46870 891 ft 74 kts 300°
2026-04-26 19:43 51.20027 4.46017 907 ft 88 kts 282°
2026-04-26 19:43 51.20109 4.45062 996 ft 85 kts 272°
2026-04-26 19:43 51.20108 4.44170 1167 ft 79 kts 265°
2026-04-26 19:44 51.20052 4.43240 1165 ft 90 kts 263°
2026-04-26 19:44 51.20087 4.42236 1143 ft 93 kts 285°
2026-04-26 19:44 51.20093 4.41352 1146 ft 92 kts 206°
2026-04-26 19:44 51.19738 4.41957 837 ft 102 kts 69°
2026-04-26 19:45 51.19785 4.42933 576 ft 83 kts 108°
2026-04-26 19:45 51.19591 4.43736 391 ft 71 kts 112°
2026-04-26 19:45 51.19431 4.44421 308 ft 68 kts 113°
2026-04-26 19:45 51.19269 4.45151 159 ft 70 kts 109°
2026-04-26 19:46 51.19101 4.45867 40 ft 60 kts 105°
2026-04-26 19:46 51.18974 4.46432 179 ft 52 kts 109°
2026-04-26 19:46 51.18879 4.46975 383 ft 52 kts 104°
2026-04-26 19:46 51.18792 4.47567 548 ft 58 kts 103°
2026-04-26 19:47 51.18492 4.47907 705 ft 58 kts 192°
2026-04-26 19:47 51.18267 4.47704 785 ft 59 kts 229°
2026-04-26 19:47 51.18109 4.46783 818 ft 70 kts 278°
2026-04-26 19:47 51.18251 4.46016 831 ft 73 kts 289°
2026-04-26 19:48 51.18421 4.45258 860 ft 77 kts 292°
2026-04-26 19:48 51.18654 4.44463 921 ft 81 kts 299°
2026-04-26 19:48 51.18924 4.43653 987 ft 82 kts 296°
2026-04-26 19:48 51.19174 4.42832 1015 ft 85 kts 294°
2026-04-26 19:49 51.19418 4.41941 995 ft 90 kts 293°
2026-04-26 19:49 51.19669 4.41034 995 ft 89 kts 293°
2026-04-26 19:49 51.20158 4.40648 905 ft 96 kts 30°
2026-04-26 19:49 51.20257 4.41584 762 ft 96 kts 136°
2026-04-26 19:50 51.19902 4.42328 641 ft 83 kts 114°
2026-04-26 19:50 51.19721 4.43143 492 ft 71 kts 108°
2026-04-26 19:50 51.19564 4.43861 391 ft 65 kts 110°
2026-04-26 19:50 51.19414 4.44519 296 ft 63 kts 110°
2026-04-26 19:51 51.19255 4.45207 135 ft 68 kts 110°
2026-04-26 19:51 51.19100 4.45878 41 ft 53 kts 108°
2026-04-26 19:51 51.18997 4.46331 38 ft 36 kts 110°
2026-04-26 19:51 51.18918 4.46674 39 ft 27 kts 107°
2026-04-26 19:52 51.18859 4.46932 36 ft 22 kts 106°
2026-04-26 19:52 51.18812 4.47113 36 ft 13 kts 149°
2026-04-26 19:52 51.18725 4.47114 33 ft 12 kts 160°
2026-04-26 19:52 51.18658 4.47054 33 ft 11 kts 240°
2026-04-26 19:53 51.18617 4.46956 33 ft 10 kts 239°
2026-04-26 19:53 51.18585 4.46855 33 ft 10 kts 257°
2026-04-26 19:53 51.18576 4.46751 33 ft 9 kts 267°
2026-04-26 19:53 51.18578 4.46651 33 ft 9 kts 276°
2026-04-26 19:54 51.18591 4.46558 33 ft 9 kts 282°
2026-04-26 19:54 51.18604 4.46465 33 ft 8 kts 282°
2026-04-26 19:54 51.18618 4.46374 33 ft 8 kts 283°
2026-04-26 19:54 51.18632 4.46286 33 ft 8 kts 285°
2026-04-26 19:55 51.18646 4.46199 33 ft 8 kts 285°
2026-04-26 19:55 51.18661 4.46114 33 ft 8 kts 292°
2026-04-26 19:55 51.18675 4.46030 33 ft 8 kts 285°
2026-04-26 19:55 51.18689 4.45946 33 ft 8 kts 285°
2026-04-26 19:56 51.18701 4.45862 33 ft 8 kts 285°
2026-04-26 19:56 51.18715 4.45779 33 ft 8 kts 282°
2026-04-26 19:56 51.18728 4.45698 33 ft 8 kts 284°
2026-04-26 19:56 51.18740 4.45616 33 ft 8 kts 283°
2026-04-26 19:57 51.18753 4.45536 33 ft 8 kts 281°
2026-04-26 19:57 51.18784 4.45483 33 ft 7 kts 347°
2026-04-26 19:57 51.18828 4.45456 33 ft 7 kts 354°
2026-04-26 19:57 51.18876 4.45445 33 ft 7 kts 351°
2026-04-26 19:58 51.18919 4.45412 33 ft 7 kts 319°
2026-04-26 19:58 51.18951 4.45353 33 ft 9 kts 282°
2026-04-26 19:58 51.19017 4.45295 33 ft 12 kts 27°
2026-04-26 19:58 51.19019 4.45324 33 ft 1 kts 108°
2026-04-26 19:59 51.19019 4.45325 33 ft 0 kts 108°